Weather History for KPQL - May, 2013

Change the Weather History Date:

Monday, May 13, 2013

  Actual Average Record
Temperature  
Mean Temperature 65 °F -  
Max Temperature 80 °F 82 °F 93 °F (1978)
Min Temperature 51 °F 64 °F 44 °F (1960)
Growing Degree Days 15 (Base 50)    
Moisture  
Dew Point 48 °F    
Average Humidity 63    
Maximum Humidity 93    
Minimum Humidity 26    
Precipitation  
Precipitation 0.00 in - - ()
Sea Level Pressure  
Sea Level Pressure 30.23 in    
Wind  
Wind Speed 4 mph (North)    
Max Wind Speed 10 mph    
Max Gust Speed 16 mph    
Visibility 10 miles    
Events      
Averages and records for this station are not official NWS values.
T = Trace of Precipitation, MM = Missing Value Source: NWS Daily Summary

Daily Weather History Graph

Daily Weather History Graph

Search for Another Location

Airport or City:

Trip Planner

Search our weather history database for the weather conditions in past years. The results will help you decide how hot, cold, wet, or windy it might be!

Date:

Astronomy

May. 13, 2013 Rise Set
Actual Time 6:00 AM CDT 7:40 PM CDT
Civil Twilight 5:34 AM CDT 8:06 PM CDT
Nautical Twilight 5:03 AM CDT 8:38 PM CDT
Astronomical Twilight 4:30 AM CDT 9:11 PM CDT
Moon 8:48 AM CDT (5/13) 10:49 PM CDT (5/13)
Length of Visible Light 14h 31m
Length of Day
13h 39m
Waxing Crescent, 12% of the Moon is Illuminated
May 13
Waxing Crescent
May 17
First Quarter
May 24
Full
May 31
Last Quarter
Jun 8
New

Hourly Weather History & Observations

Time (CDT) Temp. Dew Point Humidity Pressure Visibility Wind Dir Wind Speed Gust Speed Precip Events Conditions
12:53 AM 60.1 °F 55.0 °F 83% 30.14 in 10.0 mi North 3.5 mph - N/A   Clear
1:53 AM 57.9 °F 53.1 °F 84% 30.15 in 10.0 mi North 4.6 mph - N/A   Clear
2:53 AM 55.0 °F 50.0 °F 83% 30.16 in 10.0 mi North 6.9 mph - N/A   Clear
3:53 AM 55.0 °F 48.9 °F 80% 30.17 in 10.0 mi North 3.5 mph - N/A   Clear
4:53 AM 52.0 °F 48.9 °F 89% 30.19 in 10.0 mi Calm Calm - N/A   Clear
5:53 AM 51.1 °F 48.0 °F 89% 30.22 in 10.0 mi North 4.6 mph - N/A   Clear
6:53 AM 54.0 °F 46.9 °F 77% 30.25 in 10.0 mi North 4.6 mph - N/A   Clear
7:53 AM 59.0 °F 46.9 °F 64% 30.27 in 10.0 mi NNE 4.6 mph - N/A   Clear
8:53 AM 64.0 °F 45.0 °F 50% 30.28 in 10.0 mi NE 9.2 mph - N/A   Clear
9:53 AM 68.0 °F 43.0 °F 40% 30.29 in 10.0 mi Variable 6.9 mph - N/A   Clear
10:53 AM 71.1 °F 39.0 °F 31% 30.30 in 10.0 mi ENE 5.8 mph - N/A   Clear
11:53 AM 73.0 °F 37.0 °F 27% 30.29 in 10.0 mi NE 8.1 mph - N/A   Clear
12:53 PM 75.9 °F 39.0 °F 26% 30.26 in 10.0 mi North 10.4 mph 16.1 mph N/A   Clear
1:53 PM 77.0 °F 41.0 °F 28% 30.25 in 10.0 mi Calm Calm - N/A   Clear
3:53 PM 79.0 °F 41.0 °F 26% 30.22 in 10.0 mi Variable 4.6 mph - N/A   Clear
4:53 PM 75.0 °F 51.1 °F 43% 30.21 in 10.0 mi SSW 8.1 mph - N/A   Clear
5:53 PM 72.0 °F 53.1 °F 51% 30.20 in 10.0 mi SW 4.6 mph - N/A   Clear
7:53 PM 64.9 °F 55.0 °F 70% 30.22 in 10.0 mi WSW 3.5 mph - N/A   Clear
8:53 PM 62.1 °F 55.9 °F 80% 30.22 in 10.0 mi Calm Calm - N/A   Clear
9:53 PM 57.9 °F 55.0 °F 90% 30.23 in 10.0 mi Calm Calm - N/A   Clear
10:53 PM 57.0 °F 55.0 °F 93% 30.23 in 10.0 mi Calm Calm - N/A   Clear
11:53 PM 55.9 °F 54.0 °F 93% 30.23 in 10.0 mi Calm Calm - N/A   Clear